Tracking 19247 objects as of 24-Sep-2018
HD Live streaming from Space Station
objects crossing your sky now

FENGYUN 1C DEB

Track FENGYUN 1C DEB now!
10-day predictions


NORAD ID: 37924
Int'l Code: 1999-025ENZ
Perigee: 803.8 km
Apogee: 881.5 km
Inclination: 98.9 °
Period: 101.6 minutes
Semi major axis: 7213 km
RCS: 0.0011 m2 (small)
Launch date: May 10, 1999
Source: People's Republic of China (PRC)
Launch site: Taiyaun Space Center, China (TSC)

Note: This is SATELLITE DEBRIS
aabbcc
Your satellite tracking list
Your tracking list is empty




NASA's NSSDC Master Catalog

Two Line Element Set (TLE):
1 37924U 99025ENZ 18265.89099666 +.00000546 +00000-0 +28967-3 0  9995
2 37924 098.9406 306.6574 0053806 063.9161 296.7537 14.17003406499199
Source of the keplerian elements: AFSPC